Weather History for Quillayute, WA

Change the Weather History Date:

Tuesday, October 7, 2014

  Actual Average Record
Temperature  
Mean Temperature 14 °C 11 °C  
Max Temperature 18 °C 16 °C 23 °C (1976)
Min Temperature 11 °C 6 °C -1 °C (1983)
Degree Days  
Heating Degree Days 7 13  
Month to date heating degree days 36 87  
Since 1 July heating degree days 425 712  
Cooling Degree Days 0 0  
Month to date cooling degree days 0 0  
Year to date cooling degree days 25 19  
Growing Degree Days 8 (Base 50)    
Moisture  
Dew Point 13 °C    
Average Humidity 92    
Maximum Humidity 100    
Minimum Humidity 84    
Precipitation  
Precipitation 0.00 mm 6.86 mm 10.01 mm (1984)
Month to date precipitation T 1.66  
Year to date precipitation 60.40 62.20  
Sea Level Pressure  
Sea Level Pressure 1014 hPa    
Wind  
Wind Speed 5 km/h (NNW)    
Max Wind Speed 16 km/h    
Max Gust Speed 19 km/h    
Visibility 3 kilometers    
Events Fog    
T = Trace of Precipitation, MM = Missing Value Source: NWS Daily Summary

Daily Weather History Graph

Daily Weather History Graph

Search for Another Location

Airport:

Trip Planner

Search our weather history database for the weather conditions in past years. The results will help you decide how hot, cold, wet, or windy it might be!

Date:

Astronomy

Oct. 07, 2014 Rise Set
Actual Time 7:26 AM PDT 6:45 PM PDT
Civil Twilight 6:55 AM PDT 7:16 PM PDT
Nautical Twilight 6:19 AM PDT 7:51 PM PDT
Astronomical Twilight 5:42 AM PDT 8:27 PM PDT
Moon 6:25 PM PDT (10/7) 6:26 AM PDT (10/7)
Length of Visible Light 12h 20m
Length of Day
11h 19m
Waxing Gibbous, 99% of the Moon is Illuminated
Oct 7
Waxing Gibbous
Oct 8
Full
Oct 15
Last Quarter
Oct 23
New
Oct 30
First Quarter

Hourly Weather History & Observations

Time (PDT) Temp. Dew Point Humidity Pressure Visibility Wind Dir Wind Speed Gust Speed Precip Events Conditions
12:00 AM 13.9 °C 13.9 °C 100% 1015.1 hPa 2.0 km NNW 5.6 km/h / 1.5 m/s - N/A   Overcast
12:10 AM 13.9 °C 13.9 °C 100% 1015.1 hPa 0.8 km North 5.6 km/h / 1.5 m/s - N/A Fog Fog
12:27 AM 13.9 °C 13.9 °C 100% 1015.1 hPa 0.4 km North 7.4 km/h / 2.1 m/s - N/A Fog Fog
12:53 AM 13.9 °C 13.9 °C 100% 1015.1 hPa 0.4 km Calm Calm - N/A Fog Fog
1:26 AM 13.3 °C 13.3 °C 100% 1014.8 hPa 0.8 km Calm Calm - N/A Fog Fog
1:37 AM 13.9 °C 13.9 °C 100% 1014.8 hPa 0.4 km Calm Calm - N/A Fog Fog
1:53 AM 13.3 °C 13.3 °C 100% 1014.9 hPa 0.4 km Calm Calm - N/A Fog Fog
2:53 AM 12.8 °C 12.8 °C 100% 1014.9 hPa 0.4 km Calm Calm - N/A Fog Fog
3:53 AM 12.8 °C 12.8 °C 100% 1014.7 hPa 0.4 km Calm Calm - N/A Fog Fog
4:08 AM 12.2 °C 12.2 °C 100% 1014.4 hPa 0.4 km Calm Calm - N/A Fog Fog
4:15 AM 12.2 °C 12.2 °C 100% 1014.8 hPa 0.4 km NNW 5.6 km/h / 1.5 m/s - N/A Fog Fog
4:53 AM 12.2 °C 12.2 °C 100% 1014.6 hPa 0.4 km Calm Calm - N/A Fog Fog
5:10 AM 12.2 °C 12.2 °C 100% 1014.4 hPa 0.8 km Calm Calm - N/A Fog Fog
5:25 AM 11.7 °C 11.7 °C 100% 1014.4 hPa 0.4 km Calm Calm - N/A Fog Fog
5:49 AM 12.0 °C 12.0 °C 100% 1014.4 hPa 0.8 km NNW 5.6 km/h / 1.5 m/s - N/A Fog Fog
5:53 AM 11.7 °C 11.7 °C 100% 1014.5 hPa 0.8 km Calm Calm - N/A Fog Fog
6:01 AM 11.7 °C 11.7 °C 100% 1014.4 hPa 0.4 km NW 7.4 km/h / 2.1 m/s - N/A Fog Fog
6:13 AM 12.2 °C 12.2 °C 100% 1014.4 hPa 1.2 km Calm Calm - N/A   Overcast
6:24 AM 12.2 °C 12.2 °C 100% 1014.4 hPa 1.6 km Calm Calm - N/A   Overcast
6:46 AM 12.8 °C 12.8 °C 100% 1014.4 hPa 2.8 km Calm Calm - N/A   Overcast
6:53 AM 12.2 °C 12.2 °C 100% 1014.6 hPa 2.4 km Calm Calm - N/A   Overcast
6:57 AM 12.2 °C 12.2 °C 100% 1014.4 hPa 1.2 km Calm Calm - N/A   Overcast
7:03 AM 12.2 °C 12.2 °C 100% 1014.4 hPa 0.4 km Calm Calm - N/A Fog Fog
7:53 AM 12.8 °C 12.8 °C 100% 1014.8 hPa 0.4 km Calm Calm - N/A Fog Fog
8:53 AM 13.3 °C 13.3 °C 100% 1014.9 hPa 0.4 km Calm Calm - N/A Fog Fog
9:53 AM 13.9 °C 13.9 °C 100% 1015.2 hPa 0.4 km NNW 7.4 km/h / 2.1 m/s - N/A Fog Fog
10:23 AM 14.4 °C 14.4 °C 100% 1015.5 hPa 1.6 km West 7.4 km/h / 2.1 m/s - N/A   Overcast
10:31 AM 14.4 °C 14.4 °C 100% 1015.1 hPa 2.8 km West 5.6 km/h / 1.5 m/s - N/A   Overcast
10:53 AM 15.0 °C 15.0 °C 100% 1015.3 hPa 2.8 km NW 5.6 km/h / 1.5 m/s - N/A   Overcast
11:01 AM 15.0 °C 15.0 °C 100% 1015.1 hPa 3.2 km Calm Calm - N/A   Overcast
11:20 AM 15.0 °C 15.0 °C 100% 1015.1 hPa 6.4 km WNW 9.3 km/h / 2.6 m/s - N/A   Overcast
11:53 AM 15.6 °C 15.0 °C 96% 1015.2 hPa 6.4 km North 7.4 km/h / 2.1 m/s - N/A   Overcast
12:40 PM 16.1 °C 15.0 °C 93% 1015.1 hPa 6.4 km WNW 9.3 km/h / 2.6 m/s - N/A   Overcast
12:53 PM 16.7 °C 15.0 °C 90% 1015.1 hPa 6.4 km West 9.3 km/h / 2.6 m/s - N/A   Overcast
1:53 PM 17.0 °C 15.0 °C 88% 1014.8 hPa 6.4 km NW 5.6 km/h / 1.5 m/s - N/A   Overcast
2:46 PM 17.8 °C 15.0 °C 84% 1014.1 hPa 6.4 km North 5.6 km/h / 1.5 m/s - N/A   Haze
2:53 PM 18.0 °C 16.0 °C 88% 1014.1 hPa 6.4 km Variable 11.1 km/h / 3.1 m/s - N/A   Haze
3:29 PM 17.0 °C 14.0 °C 82% 1014.1 hPa 6.4 km NNW 13.0 km/h / 3.6 m/s - N/A   Haze
3:53 PM 17.2 °C 14.4 °C 84% 1014.3 hPa 6.4 km NNW 9.3 km/h / 2.6 m/s - N/A   Haze
4:53 PM 16.7 °C 13.9 °C 84% 1014.2 hPa 6.4 km WNW 9.3 km/h / 2.6 m/s - N/A   Haze
5:03 PM 16.7 °C 14.4 °C 86% 1014.1 hPa 6.4 km WNW 9.3 km/h / 2.6 m/s - N/A   Mostly Cloudy
5:53 PM 15.0 °C 13.9 °C 93% 1014.0 hPa 6.4 km NW 13.0 km/h / 3.6 m/s - N/A   Mostly Cloudy
6:10 PM 14.4 °C 13.3 °C 93% 1013.8 hPa 6.4 km NW 9.3 km/h / 2.6 m/s - N/A   Scattered Clouds
6:18 PM 14.4 °C 13.3 °C 93% 1013.8 hPa 6.4 km NNW 7.4 km/h / 2.1 m/s - N/A   Mostly Cloudy
6:53 PM 13.9 °C 12.8 °C 93% 1013.9 hPa 6.4 km NNW 7.4 km/h / 2.1 m/s - N/A   Scattered Clouds
7:53 PM 12.2 °C 11.7 °C 97% 1013.8 hPa 8.0 km Calm Calm - N/A   Clear
8:06 PM 11.7 °C 11.1 °C 96% 1013.8 hPa 8.0 km Calm Calm - N/A   Scattered Clouds
8:53 PM 11.7 °C 11.1 °C 96% 1013.8 hPa 8.0 km North 7.4 km/h / 2.1 m/s - N/A   Clear
9:19 PM 12.2 °C 11.7 °C 97% 1013.8 hPa 8.0 km North 7.4 km/h / 2.1 m/s - N/A   Partly Cloudy
9:53 PM 11.7 °C 11.7 °C 100% 1014.1 hPa 2.0 km North 5.6 km/h / 1.5 m/s - N/A   Mostly Cloudy
10:01 PM 12.0 °C 12.0 °C 100% 1014.1 hPa 0.8 km North 5.6 km/h / 1.5 m/s - N/A Fog Fog
10:14 PM 11.7 °C 11.7 °C 100% 1014.1 hPa 1.2 km North 5.6 km/h / 1.5 m/s - N/A   Overcast
10:25 PM 11.7 °C 11.7 °C 100% 1014.1 hPa 0.8 km North 5.6 km/h / 1.5 m/s - N/A Fog Fog
10:53 PM 11.1 °C 11.1 °C 100% 1014.2 hPa 0.8 km Calm Calm - N/A Fog Fog
11:20 PM 10.6 °C 10.6 °C 100% 1014.4 hPa 1.6 km NNW 5.6 km/h / 1.5 m/s - N/A   Mist
11:36 PM 10.6 °C 10.6 °C 100% 1014.4 hPa 2.0 km Calm Calm - N/A   Scattered Clouds
11:53 PM 10.6 °C 10.6 °C 100% 1014.6 hPa 3.2 km Calm Calm - N/A   Scattered Clouds